Volver al catálogo

ASTRA 2B

ActivoComunicacionesGEO
NORAD 26494·PAYLOAD·🇱🇺 Luxembourg

Lanzado Sep 14, 2000 desde Guiana Space Centre

Loading…

TLE

ActualizadoSource: Space-Track

Época: Sep 14, 2026, 06:49 UTC

1 26494U 00054A   26257.28461102 -.00000244  00000-0  00000-0 0  9991
2 26494   9.7902  55.2076 0016480 162.7549 210.9644  0.98918862 47527

Sigue ASTRA 2B en tiempo real con AllMySat

Download on the App Store